SCP
0 0 0 0 0 0 0 0 0 0 0 0 0 0 0 0 0 0 0 1 1 1 1 1 0 0 0 0 0 0 0 0 0 0 0 0 0 0 0 0 0 0 0
0 0 0 0 0 0 0 0 0 0 0 0 0 0 0 0 0 0 1 1 1 1 1 1 0 0 0 0 0 0 0 0 0 0 0 0 0 0 0 0 0 0 0
0 0 0 0 0 0 0 0 0 0 0 0 0 0 0 0 0 0 0 1 1 1 1 0 0 0 0 0 0 0 0 0 0 0 0 0 0 0 0 0 0 0 0
0 0 0 0 0 0 0 0 0 0 0 0 0 0 0 0 0 0 0 0 0 0 0 0 0 0 0 0 0 0 0 0 0 0 0 0 0 0 0 0 0 0 0
0 0 0 0 0 0 0 0 0 0 0 0 0 0 0 0 0 0 0 0 0 0 0 0 0 0 0 0 0 0 0 0 0 0 0 0 0 0 0 0 0 0 0
0 0 0 0 0 0 0 0 0 0 0 0 0 0 0 0 0 0 0 0 0 0 0 0 0 0 0 0 0 0 0 0 0 0 0 0 0 0 0 0 0 0 0
0 0 0 0 0 0 0 0 0 0 0 0 0 0 0 0 0 0 0 0 0 0 0 0 0 0 0 0 0 0 0 0 0 0 0 0 0 0 0 0 0 0 0
0 0 0 0 0 0 0 0 0 0 0 0 0 0 0 0 0 0 0 0 0 0 0 0 0 0 0 0 0 0 0 0 0 0 0 0 0 0 0 0 0 0 0
0 0 0 0 0 0 0 0 0 0 0 0 0 0 0 0 0 0 0 0 0 0 0 0 0 0 0 0 0 0 0 0 0 0 0 0 0 0 0 0 0 0 0
0 0 0 0 0 0 0 0 0 0 0 0 0 0 0 0 0 0 0 0 0 0 0 0 0 0 0 0 0 0 0 0 0 0 0 0 0 0 0 0 0 0 0
0 0 0 0 0 0 0 0 0 0 0 0 0 0 0 0 0 0 0 0 0 0 0 0 0 0 0 0 0 0 0 0 0 0 0 0 0 0 0 0 0 0 0
0 0 0 0 0 0 0 0 0 0 0 0 0 0 0 0 0 0 0 0 0 0 0 0 0 0 0 0 0 0 0 0 0 0 0 0 0 0 0 0 0 0 0
0 0 0 0 0 0 0 0 0 0 0 0 0 0 0 0 0 0 0 0 0 0 0 0 0 0 0 0 0 0 0 0 0 0 0 0 0 0 0 0 0 0 0
0 0 0 0 0 0 0 0 0 0 0 0 0 0 0 0 0 0 0 0 0 0 0 0 0 0 0 0 0 0 0 0 0 0 0 0 0 0 0 0 0 0 0
0 0 0 0 0 0 0 0 0 0 0 0 0 0 0 0 0 0 0 0 0 0 0 0 0 0 0 0 0 0 0 0 0 0 0 0 0 0 0 0 0 0 0
0 0 0 0 0 0 0 0 0 0 0 0 0 0 0 0 0 0 0 0 0 0 0 0 0 0 0 0 0 0 0 0 0 0 0 0 0 0 0 0 0 0 0
0 0 0 0 0 0 0 0 0 0 0 0 0 0 0 0 0 0 0 0 0 0 0 0 0 0 0 0 0 0 0 0 0 0 0 0 0 0 0 0 0 0 0
0 0 0 0 0 0 0 0 0 0 0 0 0 0 0 0 0 0 0 0 0 0 0 0 0 0 0 0 0 0 0 0 0 0 0 0 0 0 0 0 0 0 0
0 0 0 0 0 0 0 0 0 0 0 0 0 0 0 0 0 0 0 0 0 0 0 0 0 0 0 0 0 0 0 0 0 0 0 0 0 0 0 0 0 0 0
0 0 0 0 0 0 0 0 0 0 0 0 0 0 0 0 0 0 0 0 0 0 0 0 0 0 0 0 0 0 0 0 0 0 0 0 0 0 0 0 0 0 0
0 0 0 0 0 0 0 0 0 0 0 0 0 0 0 0 0 0 0 0 0 0 0 0 0 0 0 0 0 0 0 0 0 0 0 0 0 0 0 0 0 0 0
0 0 0 0 0 0 0 0 0 0 0 0 0 0 0 0 0 0 0 0 0 0 0 0 0 0 0 0 0 0 0 0 0 0 0 0 0 0 0 0 0 0 0
0 0 0 0 0 0 0 0 0 0 0 0 0 0 0 0 0 0 0 0 0 0 0 0 0 0 0 0 0 0 0 0 0 0 0 0 0 0 0 0 0 0 0
0 0 0 0 0 0 0 0 0 0 0 0 0 0 0 0 0 0 0 0 0 0 0 0 0 0 0 0 0 0 0 0 0 0 0 0 0 0 0 0 0 0 0
0 0 0 0 0 0 0 0 0 0 0 0 0 0 0 0 0 0 0 0 0 0 0 0 0 0 0 0 0 0 0 0 0 0 0 0 0 0 0 0 0 0 0
0 0 0 0 0 0 0 0 0 0 0 0 0 0 0 0 0 0 0 0 0 0 0 0 0 0 0 0 0 0 0 0 0 0 0 0 0 0 0 0 0 0 0
Wind_Speed
5 4 4 4 3 3 2 2 2 3 4 4 5 5 5 5 5 5 5 5 6 5 5 5 5 4 3 3 2 2 2 2 3 1 1 2 2 3 2 2 1 1 1
6 5 5 4 4 3 2 2 2 2 3 3 4 4 4 5 5 5 6 6 6 6 6 6 5 4 5 4 3 3 2 2 3 3 1 1 1 2 2 1 1 1 1
5 5 5 5 4 3 2 2 2 2 2 3 3 4 4 4 5 5 5 5 5 6 6 6 5 6 5 3 4 3 2 2 2 2 2 1 1 1 2 1 1 0 0
6 6 5 4 4 3 3 2 2 2 2 3 3 3 4 4 4 4 4 5 4 4 4 5 5 6 6 6 4 4 4 3 2 2 2 2 2 1 2 2 2 1 1
6 5 5 4 4 3 3 2 1 2 2 2 2 3 3 3 4 4 4 4 5 4 4 4 4 5 6 6 5 5 5 4 3 3 3 2 2 2 3 2 2 2 1
5 5 4 4 3 3 2 1 1 1 1 2 2 3 3 2 5 7 5 4 5 5 5 4 4 5 6 7 7 7 6 5 5 4 3 4 4 4 3 3 2 2 2
5 4 4 3 3 3 2 1 1 0 1 1 2 3 3 4 7 8 7 4 5 5 5 5 4 5 6 5 6 6 5 5 5 4 4 4 4 4 4 3 3 3 3
4 4 4 4 3 2 2 1 1 1 1 2 2 2 3 5 8 9 8 4 4 5 5 6 6 6 6 7 5 5 4 3 4 3 3 2 2 3 5 5 4 3 2
5 4 4 4 3 3 2 2 2 2 2 2 2 3 3 4 8 10 9 4 4 5 5 6 7 6 11 12 7 6 5 3 4 4 4 4 4 5 5 4 4 3 2
5 5 4 4 3 3 3 3 2 2 3 2 3 3 4 4 8 10 11 4 5 5 5 6 10 10 13 14 8 7 6 5 5 4 3 3 2 3 5 4 5 4 2
5 5 5 4 4 4 3 2 2 2 3 3 4 4 4 6 8 11 12 6 6 5 5 5 6 13 14 15 12 7 9 7 6 5 4 3 2 2 2 2 3 3 3
6 6 6 5 4 3 3 3 3 3 3 4 4 5 4 5 8 10 14 12 9 6 6 5 7 14 14 15 11 10 12 9 5 4 4 3 3 3 3 3 3 3 3
6 6 6 6 5 4 4 4 3 3 4 4 4 5 4 4 6 12 14 14 14 7 5 9 11 14 14 11 13 14 11 6 5 4 5 4 4 4 4 3 3 3 3
6 6 6 5 5 4 4 3 3 4 4 4 5 5 4 4 4 5 6 8 11 9 6 9 13 14 10 10 10 8 6 6 6 5 4 4 4 4 4 3 3 3 2
6 6 6 5 5 5 4 4 5 5 6 6 5 5 5 6 7 10 7 6 6 6 5 4 4 5 6 6 5 5 5 6 6 5 5 4 5 4 4 3 3 3 3
5 5 5 5 5 5 5 5 7 8 12 13 12 10 8 10 12 13 14 15 14 13 8 5 7 7 8 8 8 7 7 7 6 6 5 6 6 5 5 4 3 4 4
5 6 5 5 5 5 5 5 6 7 9 12 13 14 13 13 13 13 13 14 15 14 8 6 7 7 7 7 7 7 7 7 7 6 6 6 6 5 5 5 5 4 4
5 6 6 5 5 5 5 6 6 6 7 6 8 12 14 14 13 13 13 11 8 9 6 6 7 7 7 7 7 7 6 7 7 7 6 7 7 6 6 6 6 6 5
5 5 5 5 5 5 5 5 6 6 6 7 6 7 11 12 12 12 11 6 5 5 6 6 6 6 6 7 7 7 7 7 7 7 7 7 7 7 7 7 7 10 8
5 9 8 5 5 5 5 5 6 6 6 6 6 6 5 6 5 5 5 4 5 5 5 5 6 6 6 6 6 6 7 7 8 8 7 7 7 7 8 8 8 7 7
5 7 10 7 5 5 5 6 6 6 6 6 6 8 11 6 5 5 4 4 4 4 4 4 5 6 6 6 6 7 8 7 7 7 7 7 8 8 7 7 7 7 6
5 5 5 6 6 5 6 5 6 6 7 7 6 7 12 7 5 5 4 4 4 4 4 4 4 5 6 6 7 7 7 7 7 8 8 8 8 8 7 7 7 7 7
5 6 6 6 6 9 8 6 6 6 7 7 6 6 5 5 5 5 4 4 3 3 3 3 4 3 4 5 6 6 7 7 7 8 8 8 8 8 7 8 9 8 8
6 7 7 7 6 6 6 6 6 6 7 6 6 6 5 5 5 5 4 3 3 3 3 3 3 4 5 4 4 4 5 5 6 7 10 9 8 7 7 7 8 8 8
6 7 7 7 7 6 6 6 6 6 6 6 6 5 5 5 4 4 3 3 3 3 3 2 2 3 4 5 4 4 6 9 8 6 7 7 8 8 8 8 7 7 7
7 7 7 6 6 6 6 6 6 6 5 5 5 5 5 4 4 4 3 3 2 2 2 1 1 1 2 3 4 5 7 9 10 10 7 6 7 7 8 7 8 7 7
Wind_Direction
47 62 88 91 90 96 120 152 157 153 155 167 172 177 182 178 175 180 183 177 179 178 177 179 178 160 155 155 148 155 169 166 203 220 94 114 126 131 116 92 75 70 105
39 47 57 68 73 80 96 113 129 145 157 163 164 172 177 174 175 180 183 183 184 184 184 175 174 162 161 159 157 169 182 179 182 204 174 144 139 141 135 132 99 75 98
37 45 47 48 58 65 77 94 110 133 148 153 162 175 178 178 181 183 180 180 181 181 177 174 173 166 172 167 166 172 177 174 171 179 177 148 139 134 128 136 168 324 288
34 42 43 37 40 47 57 76 97 122 141 153 168 174 173 173 175 173 169 170 169 167 164 167 172 175 178 173 174 177 171 172 174 185 184 175 173 159 159 186 207 205 218
32 34 32 29 34 39 42 51 82 116 140 151 159 167 169 168 173 169 164 167 167 160 156 158 163 163 167 172 174 176 172 176 181 192 193 180 186 182 201 190 195 183 209
26 24 21 24 27 28 27 33 67 102 136 157 174 174 177 181 175 178 171 169 170 170 168 163 156 156 169 174 171 172 172 179 187 187 191 198 205 199 180 178 165 160 226
20 17 14 13 9 1 356 4 1 244 191 194 195 189 191 186 184 186 185 172 174 175 173 171 173 179 173 168 175 174 178 188 185 177 190 203 197 188 169 174 181 183 203
11 10 3 356 347 338 331 315 295 276 239 228 219 212 205 200 193 192 187 178 176 181 181 180 181 178 180 172 171 172 177 182 183 180 181 186 173 166 167 172 172 143 95
4 357 346 335 321 308 295 284 277 266 256 243 231 221 219 215 204 198 188 179 189 195 192 189 185 185 193 188 177 174 176 186 176 156 148 151 148 152 151 132 140 143 176
350 338 328 317 306 293 281 273 267 258 254 246 245 233 227 226 213 208 197 192 198 199 198 200 201 196 198 193 181 178 188 193 170 161 160 162 157 165 159 158 164 162 159
330 324 319 308 294 283 276 269 265 260 255 250 252 247 236 229 224 219 213 207 203 200 201 202 205 205 203 200 194 189 199 181 167 167 172 175 162 153 143 131 146 157 159
326 320 315 309 301 297 285 273 262 255 253 252 252 253 244 232 224 224 224 222 215 207 206 202 202 204 205 204 203 201 199 180 158 166 174 180 177 175 161 132 110 100 113
323 315 310 309 303 293 277 269 265 256 253 254 249 250 249 242 232 230 230 229 227 222 209 203 201 202 203 205 208 205 196 175 166 179 188 191 182 166 143 123 103 96 82
314 310 306 304 299 292 281 268 261 259 259 258 257 258 258 248 238 229 228 231 230 227 217 209 203 201 196 196 200 204 186 177 179 185 184 175 155 149 153 151 150 153 141
311 309 307 303 301 296 285 271 267 258 261 266 259 253 254 255 246 241 238 232 224 218 200 188 188 185 191 190 190 187 181 182 193 177 174 170 167 166 171 164 157 161 171
311 311 307 303 301 298 297 294 280 275 283 280 274 270 264 261 264 253 247 243 237 226 212 202 201 198 198 197 195 192 190 191 191 182 178 177 177 177 176 169 167 173 186
303 304 304 303 301 299 297 296 299 297 285 283 283 280 275 275 271 261 253 246 239 228 222 208 206 202 200 197 196 194 194 190 184 184 184 182 177 176 175 178 181 184 195
302 300 300 299 299 297 295 294 293 295 299 296 287 284 282 279 274 268 258 248 237 225 216 209 209 205 199 196 197 196 190 182 184 188 187 186 183 181 184 187 189 193 195
301 297 296 296 297 296 294 292 291 289 289 293 296 294 290 286 280 270 261 242 230 226 219 213 207 200 197 196 195 193 189 188 187 187 191 191 188 189 195 195 194 203 199
296 298 299 296 293 293 291 291 292 291 291 292 292 293 294 290 279 270 254 244 237 232 224 218 208 200 196 193 192 192 191 191 190 192 194 193 192 194 199 197 197 198 202
296 298 300 298 288 287 288 289 289 290 289 290 290 292 296 291 282 276 268 256 248 238 227 220 212 202 197 191 191 194 193 193 192 192 193 193 194 197 198 197 199 199 196
295 294 294 293 293 291 290 286 286 286 287 288 290 294 299 296 286 280 275 270 260 246 231 222 219 210 199 193 192 193 195 195 192 191 192 194 195 196 195 196 196 195 193
296 296 295 292 290 293 296 289 286 285 287 287 288 290 291 287 285 282 279 276 271 261 243 227 221 215 203 195 191 192 195 197 194 189 189 192 193 193 192 195 195 192 194
298 296 295 294 292 288 290 292 290 289 290 291 289 289 289 288 287 286 286 285 277 268 256 236 220 212 202 194 192 193 196 191 185 187 187 189 189 190 191 192 192 194 194
298 296 294 292 292 291 291 292 292 294 294 296 296 295 295 294 290 289 290 290 291 286 278 259 232 214 206 201 195 193 197 193 188 183 183 187 187 186 187 188 189 187 190
298 296 294 291 289 291 293 294 295 297 298 300 299 297 298 298 295 293 292 292 293 296 299 294 283 238 208 200 195 192 197 199 197 191 182 183 184 185 184 186 187 188 187